Weather History for PAIL - April, 2014

Change the Weather History Date:

Sunday, April 6, 2014

  Actual Average Record
Temperature  
Mean Temperature 37 °F -  
Max Temperature 41 °F 35 °F 50 °F (2007)
Min Temperature 33 °F 22 °F -16 °F (1956)
Degree Days  
Heating Degree Days 28    
Moisture  
Dew Point 34 °F    
Average Humidity 96    
Maximum Humidity 100    
Minimum Humidity 76    
Precipitation  
Precipitation 0.03 in - - ()
Sea Level Pressure  
Sea Level Pressure 29.54 in    
Wind  
Wind Speed 1 mph (West)    
Max Wind Speed 6 mph    
Max Gust Speed -    
Visibility 8 miles    
Events Rain , Snow    
Averages and records for this station are not official NWS values.
T = Trace of Precipitation, MM = Missing Value Source: NWS Daily Summary

Daily Weather History Graph

Daily Weather History Graph

Search for Another Location

Airport or City:

Trip Planner

Search our weather history database for the weather conditions in past years. The results will help you decide how hot, cold, wet, or windy it might be!

Date:

Astronomy

Apr. 06, 2014 Rise Set
Actual Time 7:29 AM AKDT 9:15 PM AKDT
Civil Twilight 6:46 AM AKDT 9:59 PM AKDT
Nautical Twilight 5:50 AM AKDT 10:55 PM AKDT
Astronomical Twilight 4:44 AM AKDT 12:03 AM AKDT
Moon 11:52 AM AKDT (4/6) 4:08 AM AKDT (4/6)
Length of Visible Light 15h 13m
Length of Day
13h 46m
Waxing Crescent, 45% of the Moon is Illuminated
Apr 6
Waxing Crescent
Apr 7
First Quarter
Apr 14
Full
Apr 21
Last Quarter
Apr 28
New

Hourly Weather History & Observations

Time (AKDT) Temp. Windchill Dew Point Humidity Pressure Visibility Wind Dir Wind Speed Gust Speed Precip Events Conditions
12:53 AM 33.1 °F - 33.1 °F 100% 29.48 in 7.0 mi Calm Calm - 0.01 in Snow Light Snow
1:17 AM 33.8 °F 30.8 °F 33.8 °F 100% 29.47 in 10.0 mi NW 3.5 mph - 0.00 in Rain Light Rain
1:29 AM 33.8 °F - 33.8 °F 100% 29.48 in 10.0 mi Calm Calm - 0.00 in Rain Light Rain
1:53 AM 33.1 °F - 33.1 °F 100% 29.49 in 10.0 mi Calm Calm - 0.00 in Rain Light Rain
2:21 AM 33.8 °F - 33.8 °F 100% 29.49 in 10.0 mi Calm Calm - 0.00 in Rain Light Rain
2:29 AM 33.8 °F - 33.8 °F 100% 29.49 in 10.0 mi Calm Calm - 0.00 in Rain Light Rain
2:53 AM 33.1 °F - 33.1 °F 100% 29.50 in 10.0 mi Calm Calm - 0.00 in   Overcast
3:11 AM 33.8 °F - 33.8 °F 100% 29.49 in 8.0 mi Calm Calm - 0.00 in Snow Light Snow
3:22 AM 33.8 °F - 33.8 °F 100% 29.49 in 10.0 mi Calm Calm - 0.00 in Rain Light Rain
3:35 AM 33.8 °F - 33.8 °F 100% 29.50 in 10.0 mi Calm Calm - 0.00 in   Overcast
3:53 AM 33.1 °F 30.0 °F 33.1 °F 100% 29.51 in 10.0 mi NNW 3.5 mph - 0.00 in Rain Light Rain
4:26 AM 33.8 °F - 33.8 °F 100% 29.50 in 10.0 mi Calm Calm - 0.00 in Rain Light Rain
4:53 AM 33.1 °F - 33.1 °F 100% 29.52 in 10.0 mi Calm Calm - 0.00 in   Overcast
5:53 AM 33.1 °F 30.0 °F 33.1 °F 100% 29.52 in 8.0 mi North 3.5 mph - 0.01 in Snow Light Snow
6:53 AM 33.1 °F - 33.1 °F 100% 29.53 in 8.0 mi Calm Calm - 0.00 in Rain Light Rain
7:53 AM 33.1 °F - 33.1 °F 100% 29.54 in 5.0 mi Calm Calm - 0.00 in   Overcast
8:06 AM 33.8 °F - 33.8 °F 100% 29.53 in 4.0 mi Calm Calm - N/A   Overcast
8:16 AM 33.8 °F - 33.8 °F 100% 29.53 in 5.0 mi Calm Calm - N/A   Overcast
8:26 AM 33.8 °F - 33.8 °F 100% 29.53 in 4.0 mi Calm Calm - N/A   Overcast
8:53 AM 33.1 °F - 33.1 °F 100% 29.55 in 6.0 mi Calm Calm - 0.00 in   Overcast
9:09 AM 33.8 °F - 33.8 °F 100% 29.54 in 2.5 mi Calm Calm - 0.01 in Snow Light Snow
9:30 AM 33.8 °F - 33.8 °F 100% 29.54 in 3.0 mi Calm Calm - 0.01 in Snow Light Snow
9:42 AM 33.8 °F - 33.8 °F 100% 29.54 in 5.0 mi Calm Calm - 0.01 in Snow Light Snow
9:51 AM 33.8 °F - 33.8 °F 100% 29.54 in 5.0 mi Calm Calm - 0.01 in Snow Light Snow
9:53 AM 33.1 °F - 33.1 °F 100% 29.56 in 5.0 mi Calm Calm - 0.02 in Snow Light Snow
10:10 AM 33.8 °F - 33.8 °F 100% 29.55 in 3.0 mi Calm Calm - 0.00 in Snow Light Snow
10:24 AM 33.8 °F - 33.8 °F 100% 29.55 in 5.0 mi Calm Calm - 0.00 in Snow Light Snow
10:38 AM 33.8 °F - 33.8 °F 100% 29.55 in 4.0 mi Calm Calm - 0.00 in Snow Light Snow
10:53 AM 34.0 °F - 34.0 °F 100% 29.57 in 6.0 mi Calm Calm - 0.00 in Snow Light Snow
11:53 AM 36.0 °F - 35.1 °F 97% 29.58 in 10.0 mi Calm Calm - 0.00 in   Overcast
12:53 PM 37.0 °F - 36.0 °F 96% 29.58 in 10.0 mi Calm Calm - 0.00 in Rain Light Rain
1:24 PM 37.4 °F 34.9 °F 35.6 °F 93% 29.57 in 10.0 mi SE 3.5 mph - 0.00 in Rain Light Rain
1:53 PM 37.0 °F - 36.0 °F 96% 29.59 in 10.0 mi Calm Calm - 0.00 in Rain Light Rain
2:08 PM 37.4 °F - 37.4 °F 100% 29.57 in 10.0 mi Calm Calm - 0.00 in Rain Light Rain
2:25 PM 39.2 °F - 37.4 °F 93% 29.57 in 10.0 mi Calm Calm - 0.00 in Rain Light Rain
2:53 PM 39.0 °F - 35.1 °F 86% 29.58 in 10.0 mi Calm Calm - 0.01 in Rain Light Rain
3:53 PM 39.9 °F - 35.1 °F 83% 29.58 in 10.0 mi Calm Calm - 0.00 in Rain Light Rain
4:12 PM 39.2 °F - 35.6 °F 87% 29.56 in 10.0 mi Calm Calm - N/A   Overcast
4:45 PM 41.0 °F - 35.6 °F 81% 29.56 in 10.0 mi Calm Calm - N/A   Overcast
4:53 PM 41.0 °F 39.0 °F 36.0 °F 82% 29.57 in 10.0 mi SSW 3.5 mph - N/A   Overcast
5:53 PM 37.9 °F 33.5 °F 35.1 °F 89% 29.57 in 10.0 mi SE 5.8 mph - N/A   Overcast
6:53 PM 37.9 °F 35.5 °F 35.1 °F 89% 29.57 in 10.0 mi SE 3.5 mph - N/A   Overcast
7:53 PM 37.9 °F 35.5 °F 35.1 °F 89% 29.57 in 10.0 mi SSW 3.5 mph - N/A   Overcast
8:53 PM 37.0 °F - 35.1 °F 93% 29.57 in 10.0 mi Calm Calm - N/A   Overcast
9:53 PM 35.1 °F 32.2 °F 34.0 °F 96% 29.57 in 10.0 mi WSW 3.5 mph - N/A   Overcast
10:00 PM 35.6 °F 32.8 °F 33.8 °F 93% 29.56 in 10.0 mi West 3.5 mph - N/A   Overcast
10:48 PM 35.6 °F 32.8 °F 33.8 °F 93% 29.56 in 10.0 mi WNW 3.5 mph - N/A   Overcast
10:53 PM 35.1 °F 32.2 °F 34.0 °F 96% 29.57 in 10.0 mi WNW 3.5 mph - N/A   Overcast
11:16 PM 35.6 °F - 33.8 °F 93% 29.56 in 10.0 mi Calm Calm - 0.00 in Rain Light Rain
11:53 PM 35.1 °F - 34.0 °F 96% 29.57 in 10.0 mi Calm Calm - 0.00 in Rain Light Rain